Topeka, KS

4:28 AM CST on February 21, 2017 (GMT -0600)
Forbes

Weather History for KFOE - December, 2012

Change the Weather History Date:

Sunday, December 2, 2012

  Actual Average Record
Temperature  
Mean Temperature 52 °F -  
Max Temperature 69 °F 45 °F 70 °F (1956)
Min Temperature 35 °F 25 °F 2 °F (1985)
Degree Days  
Heating Degree Days 13    
Growing Degree Days 2 (Base 50)    
Moisture  
Dew Point 42 °F    
Average Humidity 88    
Maximum Humidity 100    
Minimum Humidity 39    
Precipitation  
Precipitation 0.00 in - - ()
Sea Level Pressure  
Sea Level Pressure 29.94 in    
Wind  
Wind Speed 4 mph (SSW)    
Max Wind Speed 14 mph    
Max Gust Speed 21 mph    
Visibility 4 miles    
Events Fog    
Averages and records for this station are not official NWS values.
T = Trace of Precipitation, MM = Missing Value Source: NWS Daily Summary

Daily Weather History Graph

Daily Weather History Graph

Search for Another Location

Airport or City:

Trip Planner

Search our weather history database for the weather conditions in past years. The results will help you decide how hot, cold, wet, or windy it might be!

Date:

Astronomy

Dec. 02, 2012 Rise Set
Actual Time 7:23 AM CST 5:00 PM CST
Civil Twilight 6:54 AM CST 5:30 PM CST
Nautical Twilight 6:21 AM CST 6:03 PM CST
Astronomical Twilight 5:48 AM CST 6:35 PM CST
Moon 8:48 PM CST (12/2) 10:14 AM CST (12/2)
Length of Visible Light 10h 35m
Length of Day
9h 36m
Waning Gibbous, 85% of the Moon is Illuminated
Dec 2
Waning Gibbous
Dec 6
Last Quarter
Dec 13
New
Dec 19
First Quarter
Dec 28
Full

Hourly Weather History & Observations

Time (CST) Temp. Windchill Dew Point Humidity Pressure Visibility Wind Dir Wind Speed Gust Speed Precip Events Conditions
12:39 AM 44.6 °F 43.1 °F 42.8 °F 93% 29.91 in 2.5 mi West 3.5 mph - N/A   Clear
12:53 AM 42.1 °F 40.2 °F 42.1 °F 100% 29.92 in 1.0 mi West 3.5 mph - N/A   Clear
1:01 AM 42.8 °F 40.1 °F 42.8 °F 100% 29.92 in 0.8 mi West 4.6 mph - N/A   Clear
1:08 AM 42.8 °F 39.3 °F 42.8 °F 100% 29.92 in 1.8 mi West 5.8 mph - N/A   Clear
1:34 AM 41.0 °F 39.0 °F 41.0 °F 100% 29.91 in 0.8 mi WSW 3.5 mph - N/A   Mist
1:44 AM 41.0 °F 39.0 °F 39.2 °F 93% 29.91 in 0.2 mi SW 3.5 mph - N/A Fog Fog
1:53 AM 41.0 °F 39.0 °F 39.9 °F 96% 29.91 in 0.2 mi WSW 3.5 mph - N/A Fog Fog
2:53 AM 37.9 °F 33.5 °F 37.9 °F 100% 29.94 in 0.2 mi SSW 5.8 mph - N/A Fog Fog
3:53 AM 39.0 °F 34.0 °F 39.0 °F 100% 29.94 in 0.2 mi SSW 6.9 mph - N/A Fog Fog
4:04 AM 39.2 °F 34.2 °F 39.2 °F 100% 29.94 in 0.2 mi SSW 6.9 mph - N/A Fog Fog
4:20 AM 39.2 °F 33.6 °F 39.2 °F 100% 29.94 in 0.5 mi South 8.1 mph - N/A Fog Fog
4:33 AM 39.2 °F 35.9 °F 39.2 °F 100% 29.95 in 1.0 mi South 4.6 mph - N/A   Mist
4:40 AM 39.2 °F 35.9 °F 39.2 °F 100% 29.95 in 0.8 mi South 4.6 mph - N/A   Mist
4:53 AM 39.0 °F 36.8 °F 37.9 °F 96% 29.96 in 0.2 mi South 3.5 mph - N/A Fog Fog
5:24 AM 39.2 °F - 37.4 °F 93% 29.96 in 0.5 mi Calm Calm - N/A Fog Fog
5:45 AM 37.4 °F 33.8 °F 37.4 °F 100% 29.97 in 0.8 mi West 4.6 mph - N/A   Clear
5:50 AM 37.4 °F 33.8 °F 37.4 °F 100% 29.97 in 2.0 mi West 4.6 mph - N/A   Clear
5:53 AM 37.0 °F 34.5 °F 37.0 °F 100% 29.98 in 3.0 mi West 3.5 mph - N/A   Clear
6:53 AM 37.9 °F 35.5 °F 37.0 °F 97% 29.99 in 4.0 mi WSW 3.5 mph - N/A   Clear
7:13 AM 35.6 °F - 35.6 °F 100% 29.99 in 1.8 mi Calm Calm - N/A   Clear
7:25 AM 35.6 °F 31.7 °F 35.6 °F 100% 29.99 in 0.5 mi South 4.6 mph - N/A Fog Fog
7:37 AM 35.6 °F - 35.6 °F 100% 30.00 in 2.0 mi Calm Calm - N/A   Clear
7:45 AM 35.6 °F - 35.6 °F 100% 30.00 in 3.0 mi Calm Calm - N/A   Clear
7:53 AM 36.0 °F 33.3 °F 36.0 °F 100% 30.01 in 1.5 mi South 3.5 mph - N/A   Clear
8:13 AM 35.6 °F - 35.6 °F 100% 30.01 in 3.0 mi Calm Calm - N/A   Clear
8:53 AM 41.0 °F - 41.0 °F 100% 30.04 in 4.0 mi Calm Calm - N/A   Clear
9:53 AM 50.0 °F - 45.0 °F 83% 30.04 in 10.0 mi Calm Calm - N/A   Clear
10:53 AM 55.0 °F - 46.0 °F 72% 30.03 in 10.0 mi South 3.5 mph - N/A   Clear
11:53 AM 61.0 °F - 46.0 °F 58% 30.01 in 10.0 mi Calm Calm - N/A   Clear
12:53 PM 64.9 °F - 45.0 °F 48% 29.98 in 10.0 mi South 5.8 mph - N/A   Clear
1:53 PM 68.0 °F - 44.1 °F 42% 29.95 in 10.0 mi SE 4.6 mph - N/A   Clear
2:53 PM 69.1 °F - 43.0 °F 39% 29.92 in 10.0 mi SE 9.2 mph - N/A   Clear
3:53 PM 64.9 °F - 43.0 °F 45% 29.91 in 10.0 mi SE 8.1 mph - N/A   Clear
4:53 PM 60.1 °F - 48.0 °F 64% 29.90 in 10.0 mi SE 9.2 mph - N/A   Clear
5:53 PM 55.0 °F - 48.0 °F 77% 29.90 in 10.0 mi SE 5.8 mph - N/A   Clear
6:53 PM 54.0 °F - 50.0 °F 86% 29.90 in 10.0 mi SE 4.6 mph - N/A   Clear
7:53 PM 55.0 °F - 52.0 °F 89% 29.89 in 10.0 mi SE 6.9 mph - N/A   Clear
8:53 PM 53.1 °F - 51.1 °F 93% 29.87 in 10.0 mi SSE 6.9 mph - N/A   Clear
9:53 PM 53.1 °F - 50.0 °F 89% 29.84 in 10.0 mi SE 8.1 mph - N/A   Clear
10:53 PM 55.9 °F - 48.9 °F 77% 29.82 in 10.0 mi SSE 10.4 mph - N/A   Clear
11:53 PM 59.0 °F - 53.1 °F 81% 29.81 in 10.0 mi South 13.8 mph 20.7 mph N/A   Clear